Voltar ao catálogo

STARLINK-3892

AtivoComunicaçõesVLEO
NORAD 52488·PAYLOAD·🇺🇸 United States

Lançado May 6, 2022 de Cape Canaveral Space Force Station

Loading…

Próximas Passagens (próximas 24 horas)

TLE

AtualizadoSource: CelesTrak SupGP

Época: Sep 14, 2026, 22:10 UTC

1 52488C 22049AP  26257.92409722  .00050972  00000+0  15476-2 0  2575
2 52488  53.1584 279.8370 0001376  95.2013 265.1315 15.33503730    12

Acompanhe STARLINK-3892 em tempo real com AllMySat

Download on the App Store